Location: Cedar Brake
(32.2526°N, 97.8459°W)
Time: 16:48:55
(UTC+00:00)

USA 238 - Pass Details

Date: 22 April 2026
Orbit: 883 x 1328 km, 63.4° (Epoch: 10 January)

Event Time Altitude Azimuth Distance (km) Brightness Sun altitude
Rises 02:37:11 0° 329° (NNW) 4,074 7.8 -18.9°
Reaches altitude 10° 02:39:50 10° 330° (NNW) 3,164 7.0 -19.3°
Maximum altitude 02:47:36 88° 245° (WSW) 1,291 4.0 -20.8°
Enters shadow 02:52:26 28° 153° (SSE) 2,239 4.9 -21.6°
